Regional Weather Roundup
Issued by NWS

Home | Current Version | Previous Version | Text Only | Print | Product List | Glossary On
Versions: 1 2 3 4 5 6 7 8 9 10 11 12 13 14 15 16 17 18 19 20 21 22 23 24 25 26 27
000
ASUS45 KBOU 181307
RWRCO

WEATHER ROUNDUP FOR COLORADO
NATIONAL WEATHER SERVICE DENVER/BOULDER CO
700 AM MDT FRI AUG 18 2017

NOTE: "FAIR" INDICATES FEW OR NO CLOUDS BELOW 12000 FEET WITH NO
SIGNIFICANT WEATHER AND/OR OBSTRUCTIONS TO VISIBILITY.

COZ001>005-013-030-031-181400-
...NORTHWEST COLORADO...

CITY           SKY/WX    TMP DP  RH WIND       PRES   REMARKS
CRAIG          FAIR      41  36  82 CALM      30.32R
HAYDEN         FAIR      51  39  63 E10       30.34R
MEEKER         FAIR      49  39  68 NE3       30.32R
RABBIT EARS PA FAIR      46  32  57 CALM      30.57R
STEAMBOAT SPGS FAIR      44  38  80 CALM      30.35S
WALDEN         FAIR      39  34  81 SE6       30.42S
$$

COZ006>008-011-181400-
...WEST CENTRAL VALLEYS...

CITY           SKY/WX    TMP DP  RH WIND       PRES   REMARKS
GRAND JUNCTION FAIR      60  39  45 SE9       30.19R
MONTROSE       FAIR      53  39  59 S7        30.28R
EAGLE          FAIR      46  35  65 CALM      30.38R
RIFLE          FAIR      52  38  58 SE6       30.27R
DELTA          FAIR      58  39  49 E5        30.24R
NUCLA          FAIR      54  32  43 S3        30.31R
$$

COZ017>023-064>068-181400-
...SOUTHWEST COLORADO...

CITY           SKY/WX    TMP DP  RH WIND       PRES   REMARKS
DURANGO        FAIR      45  32  60 CALM      30.31R
CORTEZ         FAIR      45  36  70 CALM      30.26R
PAGOSA SPRINGS FAIR      45  32  59 CALM      30.39R
TELLURIDE      NOT AVBL
WOLF CREEK PAS NOT AVBL
$$

COZ009-010-012-014-032>034-037-058>063-181400-
...CENTRAL COLORADO...

CITY           SKY/WX    TMP DP  RH WIND       PRES   REMARKS
ASPEN          FAIR      46  37  71 S7        30.40R
BUENA VISTA    FAIR      46  36  67 CALM      30.43R
COPPER MTN     FAIR      45  32  61 W8        30.67R
BERTHOUD PASS  FAIR      37  34  87 NW22      30.66R
COTTONWOOD PAS FAIR      55  28  35 W10       30.54R
GUNNISON       FAIR      38  33  82 CALM      30.47R
KREMMLING      FAIR      43  37  81 CALM      30.42R
LEADVILLE      FAIR      37  31  78 CALM      30.53R
MONARCH PASS   FAIR      45  28  53 NW10      30.78R
SALIDA         FAIR      47  38  71 CALM      30.49R
SUNLIGHT       FAIR      48  28  46 E3        30.62R
WILKERSON PASS FAIR      46  30  53 NW5       30.64S
$$

COZ069>075-181400-
...SAN LUIS VALLEY/SANGRE DE CRISTO MOUNTAINS...

CITY           SKY/WX    TMP DP  RH WIND       PRES   REMARKS
ALAMOSA        FAIR      40  36  86 S3        30.40R
DEL NORTE      FAIR      50  35  56 W18G25    30.42R
LA VETA PASS   NOT AVBL
SAGUACHE       FAIR      45  34  65 N8        30.42R
$$

COZ035-036-038>040-181400-
...NORTHERN COLORADO FRONT RANGE...

CITY           SKY/WX    TMP DP  RH WIND       PRES   REMARKS
DENVER INTL AP FAIR      59  47  64 W3        30.22R
DMNS CITY PARK   N/A     58  49  71 E7        30.23R
AURORA         PTCLDY    54  46  75 SW6       30.24R
FRONT RANGE AP FAIR      55  50  82 SW5       30.23R
ERIE MUNI ARPT FAIR      51  47  85 CALM      30.26S
BOULDER MUN AP FAIR      55  43  62 SW3       30.22R
CENTENNIAL     FAIR      56  44  64 W5        30.25R
BROOMFIELD     PTCLDY    57  45  62 W6        30.24R
FORT COLLINS   FAIR      54  47  77 N5        30.21R
LONGMONT       FAIR      55  46  69 CALM      30.23R HAZE
$$

COZ041-046-047-076>085-087-088-181400-
...PIKES PEAK/PALMER DIVIDE AND SOUTHERN FOOTHILLS...

CITY           SKY/WX    TMP DP  RH WIND       PRES   REMARKS
COLO. SPRINGS  FAIR      66  38  35 NW10      30.26R
A. F. ACADEMY  FAIR      52  40  64 N10       30.28R
SCHRIEVER AFB  FAIR      63  37  37 N10       30.25R
CHEYENNE MTN   FAIR      70  32  23 NW16      30.24R
ELLICOTT       FAIR     N/A N/A N/A N9        30.23R
FALCON         FAIR      61  35  38 NW10      30.31R
FORT CARSON    FAIR      61  42  49 NW14      30.22R
LIMON          FAIR      56  48  74 CALM      30.21R
MONUMENT HILL  FAIR      52  41  66 W6        30.33R
CANON CITY     CLEAR     66  39  37 W21       30.20S
WALSENBURG     FAIR      64  37  36 SW7       30.24R
TRINIDAD       FAIR      59  41  51 W16       30.23R
$$

COZ042>045-048>051-090-091-181400-
...NORTHEAST COLORADO...

CITY           SKY/WX    TMP DP  RH WIND       PRES   REMARKS
GREELEY ARPT   FAIR      54  49  83 NW5       30.19R
AKRON          FAIR      55  48  77 W12       30.16R
BURLINGTON     FAIR      61  55  81 W10       30.12R
WRAY           NOT AVBL
YUMA           FAIR      54  50  87 W8        30.12R
STERLING       FAIR      52  50  93 CALM      30.12R
HOLYOKE        FAIR      61  52  72 N10       30.09R
FORT MORGAN    FAIR      55  46  74 W7        30.17R
$$

COZ086-089-092>099-181400-
...SOUTHEAST COLORADO...

CITY           SKY/WX    TMP DP  RH WIND       PRES   REMARKS
PUEBLO         FAIR      58  45  62 W5        30.15R
LA JUNTA       FAIR      59  51  75 S9        30.13R
LAMAR          FAIR      58  54  86 CALM      30.09R
SPRINGFIELD      N/A     60  60 100 SW9       30.16R
$$




USA.gov is the U.S. government's official web portal to all federal, state and local government web resources and services.